Regional Weather Roundup
Issued by NWS Little Rock, AR

Home | Current Version | Previous Version | Graphics & Text | Print | Product List | Glossary On
Versions: 1 2 3 4 5 6 7 8 9 10 11 12 13 14 15 16 17 18 19 20 21 22 23 24 25 26 27 28 29 30 31 32 33 34 35 36 37 38 39 40 41 42 43 44 45 46 47 48 49 50
000
ASUS44 KLZK 220705
RWRLZK

WEATHER ROUNDUP FOR ARKANSAS
NATIONAL WEATHER SERVICE LITTLE ROCK AR
200 AM CDT SUN OCT 22 2017

NOTE: "FAIR" INDICATES FEW OR NO CLOUDS BELOW 12,000 FEET WITH NO
SIGNIFICANT WEATHER AND/OR OBSTRUCTIONS TO VISIBILITY.

ARZ001-003-010-029-220800-
NORTHWEST ARKANSAS

CITY           SKY/WX    TMP DP  RH WIND       PRES   REMARKS
FAYETTEVILLE   TSTM      57  57 100 VRB6      30.00R FOG
FORT SMITH     TSTM      60  58  92 N7        30.00R
HARRISON       TSTM      57  57 100 NW13G29   29.93R VSB 1
BENTONVILLE    RAIN      58  56  93 SW5       30.00S
ROGERS         RAIN      57  56  96 W5        29.98R
SILOAM SPGS    RAIN      58  57  97 S6        30.01R
HIGHFILL       RAIN      58  58 100 SW7       29.99S FOG
$$

ARZ004-005-016-220800-
NORTH CENTRAL ARKANSAS

CITY           SKY/WX    TMP DP  RH WIND       PRES   REMARKS
BATESVILLE     CLOUDY    73  68  84 S13G22    29.93F
FLIPPIN        MOCLDY    74  67  78 S15G22    29.87F
MTN HOME       CLOUDY    73  68  84 SW17G30   29.87F
$$

ARZ040-041-220800-
WEST CENTRAL ARKANSAS

CITY           SKY/WX    TMP DP  RH WIND       PRES   REMARKS
MENA           CLOUDY    73  68  83 NW23G36   29.99R
$$

ARZ009-017-025-026-028-220800-
NORTHEAST ARKANSAS

CITY           SKY/WX    TMP DP  RH WIND       PRES   REMARKS
JONESBORO      CLOUDY    73  65  75 S16G24    29.97F
NEWPORT        CLOUDY    73  66  78 S20G26    29.95F
WALNUT RIDGE   MOCLDY    73  65  75 S17G25    29.95F
BLYTHEVILLE    MOCLDY    72  64  76 S16G24    30.01F
$$

ARZ022-023-033-042-044-220800-
CENTRAL ARKANSAS

CITY           SKY/WX    TMP DP  RH WIND       PRES   REMARKS
LITTLE ROCK    CLOUDY    74  71  91 S14G22    29.94S
N LITTLE ROCK    N/A     74  69  86 S12G20    29.94F
JACKSONVILLE   CLOUDY    75  70  84 SE14G24   29.92F
SEARCY         CLOUDY    74  71  91 S13       29.94F
HOT SPRINGS    CLOUDY    75  71  87 S10       29.94S
RUSSELLVILLE   CLOUDY    76  68  76 S10G18    29.89S
CLINTON        CLOUDY    73  70  88 S6        29.92S
$$

ARZ036-220800-
EAST ARKANSAS

CITY           SKY/WX    TMP DP  RH WIND       PRES   REMARKS
WEST MEMPHIS   CLOUDY    73  66  78 S17       29.99F
$$

ARZ050-053-066-070-073-220800-
SOUTHWEST ARKANSAS

CITY           SKY/WX    TMP DP  RH WIND       PRES   REMARKS
ARKADELPHIA    CLOUDY    74  70  87 S13       29.96R
CAMDEN         CLOUDY    73  68  83 S10G17    29.94F
TEXARKANA      CLOUDY    73  67  81 S12       29.95R
EL DORADO      CLOUDY    73  71  93 S8        29.95F
DE QUEEN       CLOUDY    76  72  87 W14       29.96R
$$

ARZ056-057-069-220800-
SOUTHEAST ARKANSAS

CITY           SKY/WX    TMP DP  RH WIND       PRES   REMARKS
PINE BLUFF     MOCLDY    74  69  85 S13       29.96F
STUTTGART      CLOUDY    75  69  81 S17       29.96F
MONTICELLO     CLOUDY    74  70  87 S6        29.97S

$$





USA.gov is the U.S. government's official web portal to all federal, state and local government web resources and services.